Station WCRP1 - Walnut Creek Marina, PA Image indicating link to RSS feed of recent meteorological observations for station WCRP1


Conditions at WCRP1 as of
(12:00 pm EDT)
1600 GMT on 07/21/2024:
     

Click on the graph icon in the table below to see a time series plot of the last five days of that observation.

5-day plot - Wind Direction Wind Direction (WDIR):WSW ( 250 deg true )
5-day plot - Wind Speed Wind Speed (WSPD): 4.1 kts
5-day plot - Wind Gust Wind Gust (GST): 6.0 kts
5-day plot - Air Temperature Air Temperature (ATMP): 75.4 °F
5-day plot - Wind Speed at 10 Meters Wind Speed at 10 meters (WSPD10M): 3.9 kts
5-day plot - Wind Speed at 20 Meters Wind Speed at 20 meters (WSPD20M): 3.9 kts
5-day plot -  Wind Speed, Wind Gust and Atmospheric Pressure Combined plot of Wind Speed, Gust, and Air Pressure
Previous observations
TIME
(EDT)
5-day plot - Wind Direction
WDIR
 
5-day plot - Wind Speed
WSPD
kts
5-day plot - Wind Gust
GST
kts
5-day plot - Wave Height
WVHT
ft
5-day plot - Dominant Wave Period
DPD
sec
5-day plot - Average Wave Period
APD
sec
5-day plot - Mean Wave Direction
MWD
 
5-day plot - Atmospheric Pressure
PRES
in
5-day plot - Pressure Tendency
PTDY
in
5-day plot - Air Temperature
ATMP
°F
5-day plot - Water Temperature
WTMP
°F
5-day plot - Dew Point
DEWP
°F
5-day plot - Salinity
SAL
psu
5-day plot - Visibility
VIS
nmi
5-day plot - Tide (above MLLW)
TIDE
ft
2024-07-21 11:50 amWSW 4.1 6.0------ 75.0-----
2024-07-21 11:40 am W-------- 75.9-----
2024-07-21 11:30 amWSW 1.9 6.0------ 75.0-----
2024-07-21 11:20 amWSW 4.1 6.0------ 74.8-----
2024-07-21 11:10 amWSW 4.1 6.0------ 74.3-----
2024-07-21 11:00 am W 2.9 6.0------ 74.3-----
2024-07-21 10:50 am W 4.1 6.0------ 73.9-----
2024-07-21 10:40 amWSW 4.1 6.0------ 73.8-----
2024-07-21 10:30 amWSW 4.1 7.0------ 73.8-----
2024-07-21 10:20 amWSW 4.1 6.0------ 73.8-----
2024-07-21 10:10 amWSW 4.1 6.0------ 73.8-----
2024-07-21 10:00 am W 2.9 6.0------ 73.8-----
2024-07-21 09:50 amSSW 1.9 4.1------ 73.9-----
2024-07-21 09:40 am SW 1.9 4.1------ 73.4-----
2024-07-21 09:30 am S 2.9 6.0------ 72.9-----
2024-07-21 09:20 amSSE 4.1 6.0------ 71.8-----
2024-07-21 09:10 amSSE 5.1 7.0------ 71.1-----
2024-07-21 09:00 am SE 2.9 8.0------ 70.2-----
2024-07-21 08:50 amSSE 5.1 7.0------ 69.4-----
2024-07-21 08:40 amSSE 5.1 8.0------ 68.5-----
2024-07-21 08:30 am SE 5.1------- 67.8-----
2024-07-21 08:20 am SE-------- 67.1-----
2024-07-21 08:10 am SE 5.1 7.0------ 66.2-----
2024-07-21 08:00 am SE 4.1 7.0------ 65.5-----
2024-07-21 07:50 am SE 5.1 8.9------ 64.4-----
2024-07-21 07:40 am SE 5.1 7.0------ 64.0-----
2024-07-21 07:30 am SE 5.1 7.0------ 63.5-----
2024-07-21 07:20 am SE 6.0 8.0------ 63.1-----
2024-07-21 07:10 am SE 6.0------- 62.8-----
2024-07-21 07:00 am SE 5.1------- 62.4-----
2024-07-21 06:50 am SE 6.0------- 62.1-----
2024-07-21 06:40 am SE 6.0 8.0------ 61.7-----
2024-07-21 06:30 am SE 6.0------- 61.3-----
2024-07-21 06:20 am SE 5.1------- 61.2-----
2024-07-21 06:10 am SE 6.0 8.0------ 61.2-----
2024-07-21 06:00 am SE 6.0 8.0------ 61.0-----
2024-07-21 05:50 am SE 5.1------- 60.8-----
2024-07-21 05:40 am SE 6.0------- 60.4-----
2024-07-21 05:30 am SE 7.0 8.0------ 60.4-----
2024-07-21 05:20 am SE 7.0 8.0------ 60.6-----
2024-07-21 05:10 am SE 6.0 8.9------ 60.6-----
2024-07-21 05:00 am SE 6.0 8.0------ 60.8-----
2024-07-21 04:50 am SE 6.0 8.0------ 60.6-----
2024-07-21 04:40 amSSE 6.0 8.0------ 61.0-----
2024-07-21 04:30 am SE 6.0 8.0------ 61.2-----
2024-07-21 04:20 am SE 6.0 8.0------ 61.2-----
2024-07-21 04:10 am SE 6.0 8.0------ 61.0-----
2024-07-21 04:00 am SE 6.0 8.0------ 61.2-----
2024-07-21 03:50 am SE 6.0 7.0------ 61.2-----
2024-07-21 03:40 am SE 6.0 8.0------ 61.2-----
2024-07-21 03:30 am SE 6.0 8.0------ 61.3-----
2024-07-21 03:20 am SE 5.1 8.0------ 61.3-----
2024-07-21 03:10 am SE 5.1------- 61.5-----
2024-07-21 03:00 am SE 5.1 7.0------ 61.7-----
2024-07-21 02:50 am SE 5.1 8.0------ 61.9-----
2024-07-21 02:40 am SE 5.1 8.0------ 62.1-----
2024-07-21 02:30 am SE 5.1 8.0------ 61.9-----
2024-07-21 02:20 am SE 6.0 7.0------ 62.1-----
2024-07-21 02:10 am SE 6.0------- 62.1-----
2024-07-21 02:00 am SE 6.0 7.0------ 62.1-----
2024-07-21 01:50 am SE 6.0 7.0------ 62.2-----
2024-07-21 01:40 am SE 6.0 7.0------ 62.4-----
2024-07-21 01:30 amSSE 6.0------- 62.6-----
2024-07-21 01:20 amSSE 6.0 8.0------ 62.8-----
2024-07-21 01:10 am SE 6.0 7.0------ 63.0-----
2024-07-21 01:00 am SE 6.0 7.0------ 63.0-----
2024-07-21 12:50 amSSE 6.0 7.0------ 63.0-----
2024-07-21 12:40 amSSE 6.0 7.0------ 63.1-----
2024-07-21 12:30 amSSE 6.0 8.0------ 63.0-----
2024-07-21 12:20 amSSE 6.0 7.0------ 63.1-----
2024-07-21 12:10 amSSE 6.0 8.0------ 63.3-----
2024-07-21 12:00 amSSE 6.0 7.0------ 63.5-----
2024-07-20 11:50 pm SE 5.1 7.0------ 63.7-----
2024-07-20 11:40 pmSSE 6.0 7.0------ 64.0-----
2024-07-20 11:30 pm SE 6.0 7.0------ 64.2-----
2024-07-20 11:20 pm SE 6.0 7.0------ 64.6-----
2024-07-20 11:10 pmSSE 5.1 7.0------ 64.6-----
2024-07-20 11:00 pmSSE 6.0 7.0------ 64.8-----
2024-07-20 10:50 pmSSE 5.1 6.0------ 65.1-----
2024-07-20 10:40 pmSSE 5.1 6.0------ 65.1-----
2024-07-20 10:30 pm SE 5.1 6.0------ 65.5-----
2024-07-20 10:20 pmSSE 5.1 6.0------ 65.7-----
2024-07-20 10:10 pmSSE 5.1 5.1------ 66.0-----
2024-07-20 10:00 pm SE 5.1 6.0------ 66.4-----
2024-07-20 09:50 pmSSE 5.1 5.1------ 66.7-----
2024-07-20 09:40 pmSSE 4.1 5.1------ 67.1-----
2024-07-20 09:30 pmSSE 4.1 5.1------ 67.6-----
2024-07-20 09:20 pmSSE 4.1 5.1------ 68.4-----
2024-07-20 09:10 pm SE 4.1 5.1------ 68.9-----
2024-07-20 09:00 pmSSE 2.9 4.1------ 70.5-----
2024-07-20 08:50 pmSSE 1.9 2.9------ 71.1-----
2024-07-20 08:40 pm SW 1.9 6.0------ 72.3-----
2024-07-20 08:30 pmSSW 1.9 5.1------ 73.6-----
2024-07-20 08:20 pm SW 1.0 6.0------ 74.3-----
2024-07-20 08:10 pmWSW 4.1 7.0------ 74.5-----
2024-07-20 08:00 pm W 5.1 6.0------ 75.2-----
2024-07-20 07:50 pm W 4.1 6.0------ 75.7-----
2024-07-20 07:40 pm W 5.1 7.0------ 75.0-----
2024-07-20 07:30 pm W 5.1 8.0------ 75.2-----
2024-07-20 07:20 pm W 6.0 7.0------ 75.0-----
2024-07-20 07:10 pmWSW 5.1 7.0------ 75.7-----
2024-07-20 07:00 pm W 5.1------- 75.9-----
2024-07-20 06:50 pmWSW 5.1 7.0------ 76.3-----
2024-07-20 06:40 pm W 5.1 7.0------ 76.5-----
2024-07-20 06:30 pmWSW 4.1 6.0------ 76.3-----
2024-07-20 06:20 pmWSW 2.9 6.0------ 76.5-----
2024-07-20 06:10 pmWSW 4.1 6.0------ 76.3-----
2024-07-20 06:00 pmWSW 4.1 6.0------ 76.5-----
2024-07-20 05:50 pmWSW 4.1 6.0------------
2024-07-20 05:40 pmWSW 2.9 6.0------ 76.5-----
2024-07-20 05:30 pm W 2.9 5.1------ 76.1-----
2024-07-20 05:20 pm W 4.1 6.0------ 75.9-----
2024-07-20 05:10 pmWNW 2.9 5.1------------
2024-07-20 05:00 pm W 4.1 5.1------ 75.6-----
2024-07-20 04:50 pmWNW 2.9 6.0------ 75.6-----
2024-07-20 04:40 pm W 4.1 7.0------ 75.7-----
2024-07-20 04:30 pm W 4.1 6.0------ 75.7-----
2024-07-20 04:20 pmWNW 6.0 6.0------ 75.2-----
2024-07-20 04:10 pmWNW 5.1 7.0------ 75.4-----
2024-07-20 04:00 pmWNW 5.1 6.0------ 75.4-----
2024-07-20 03:50 pm W 4.1 6.0------ 75.6-----
2024-07-20 03:40 pmWNW 5.1 6.0------ 75.2-----
2024-07-20 03:30 pm W 4.1 7.0------ 74.5-----
2024-07-20 03:20 pmWNW 5.1 8.0------------
2024-07-20 03:10 pm NW 6.0 7.0------ 74.8-----
2024-07-20 03:00 pm NW 4.1 6.0------ 74.7-----
2024-07-20 02:50 pmWNW 2.9 6.0------ 74.7-----
2024-07-20 02:40 pm NW 2.9 5.1------ 75.0-----
2024-07-20 02:30 pmWNW 2.9 5.1------ 75.0-----
2024-07-20 02:20 pmWNW 2.9 5.1------ 74.7-----
2024-07-20 02:10 pm NW 4.1 5.1------ 74.7-----
2024-07-20 02:00 pmNNW 4.1 5.1------ 74.5-----
2024-07-20 01:50 pmNNW 4.1 5.1------ 74.5-----
2024-07-20 01:40 pmNNW 2.9 5.1------ 74.5-----
2024-07-20 01:30 pm N 4.1 4.1------ 73.9-----
2024-07-20 01:20 pm N 2.9 6.0------ 73.8-----
2024-07-20 01:10 pm N 4.1 5.1------ 73.8-----
2024-07-20 01:00 pmNNW 2.9 4.1------------
2024-07-20 12:50 pm N 2.9 4.1------ 73.4-----
2024-07-20 12:40 pmNNW 2.9 4.1------ 73.0-----
2024-07-20 12:30 pmNNW 2.9 5.1------ 73.0-----
2024-07-20 12:20 pmNNW 4.1 7.0------ 72.9-----
2024-07-20 12:10 pmNNW 4.1 6.0------ 72.7-----
2024-07-20 12:00 pmNNW 4.1 7.0------ 72.3-----
2024-07-20 11:50 amNNW 4.1 6.0------ 72.3-----